Location: Arborea
(39.7744°N, 8.5819°E)
Time: 18:35:18
(UTC+00:00)

Okean-O - Pass Details

Date: 29 May 2022
Orbit: 638 x 640 km, 98.1° (Epoch: 27 June)

Event Time Altitude Azimuth Distance (km) Brightness Sun altitude
Rises 19:51:45 0° 195° (SSW) 2,929 5.8 -11.2°
Reaches altitude 10° 19:54:17 10° 209° (SSW) 2,025 5.1 -11.6°
Maximum altitude 19:57:55 25° 265° (W) 1,299 4.7 -12.1°
Drops below altitude 10° 20:01:34 10° 320° (NW) 2,037 6.7 -12.6°
Sets 20:04:07 0° 334° (NNW) 2,950 7.5 -13.0°
